Location: Mascot Post Office (historical)
(40.2645°N, 99.5462°W)
Time: 01:08:39
(UTC+00:00)

Meteor 1-11 - Pass Details

Date: 14 July 2020
Orbit: 841 x 886 km, 81.2° (Epoch: 14 August)

Event Time Altitude Azimuth Distance (km) Brightness Sun altitude
Rises 02:46:03 0° 180° (S) 3,404 7.0 -7.0°
Reaches altitude 10° 02:48:28 10° 178° (S) 2,478 6.3 -7.4°
Maximum altitude 02:54:02 68° 96° (E) 927 4.3 -8.2°
Drops below altitude 10° 02:59:44 10° 15° (NNE) 2,526 7.0 -9.1°
Sets 03:02:12 0° 13° (NNE) 3,474 7.8 -9.4°
